"datetime","temp","dp","rain_mm","uv","solar","mb","wind_mph","gust_mph","windchill","rh"
"2017-12-07 00:00:00",9.0,7.6,0.0,0.0,0,1016.8,3,6,7.5,91
"2017-12-07 00:01:00",9.0,7.6,0.0,0.0,0,1016.8,2,4,8.2,91
"2017-12-07 00:02:00",9.0,7.6,0.0,0.0,0,1016.7,3,5,7.8,91
"2017-12-07 00:03:00",9.0,7.6,0.0,0.0,0,1016.7,6,11,6.4,91
"2017-12-07 00:04:00",9.0,7.6,0.0,0.0,0,1016.7,4,9,6.7,91
"2017-12-07 00:05:00",8.9,7.5,0.0,0.0,0,1016.7,6,14,5.7,91
"2017-12-07 00:06:00",8.9,7.5,0.0,0.0,0,1016.7,3,4,8.1,91
"2017-12-07 00:07:00",8.9,7.5,0.0,0.0,0,1016.7,2,4,8.1,91
"2017-12-07 00:08:00",8.9,7.5,0.0,0.0,0,1016.7,3,4,8.1,91
"2017-12-07 00:09:00",8.9,7.5,0.0,0.0,0,1016.7,3,7,7.1,91
"2017-12-07 00:10:00",8.9,7.5,0.0,0.0,0,1016.7,3,5,7.7,91
"2017-12-07 00:11:00",8.9,7.5,0.0,0.0,0,1016.7,5,10,6.4,91
"2017-12-07 00:12:00",8.9,7.5,0.0,0.0,0,1016.6,6,13,5.9,91
"2017-12-07 00:13:00",8.9,7.5,0.0,0.0,0,1016.7,3,10,6.4,91
"2017-12-07 00:14:00",8.9,7.5,0.0,0.0,0,1016.6,5,10,6.4,91
"2017-12-07 00:15:00",8.9,7.5,0.0,0.0,0,1016.6,7,12,6.1,91
"2017-12-07 00:16:00",8.9,7.5,0.0,0.0,0,1016.6,4,7,7.1,91
"2017-12-07 00:17:00",8.9,7.5,0.0,0.0,0,1016.5,3,4,8.1,91
"2017-12-07 00:18:00",8.9,7.7,0.0,0.0,0,1016.5,3,6,7.4,92
"2017-12-07 00:19:00",8.9,7.7,0.0,0.0,0,1016.6,3,6,7.4,92
"2017-12-07 00:20:00",8.8,7.6,0.0,0.0,0,1016.6,3,5,7.7,92
"2017-12-07 00:21:00",8.8,7.6,0.0,0.0,0,1016.5,3,5,7.6,92
"2017-12-07 00:22:00",8.8,7.6,0.0,0.0,0,1016.4,3,9,6.5,92
"2017-12-07 00:23:00",8.8,7.6,0.0,0.0,0,1016.4,4,9,6.5,92
"2017-12-07 00:24:00",8.8,7.6,0.0,0.0,0,1016.4,4,7,7.0,92
"2017-12-07 00:25:00",8.8,7.6,0.0,0.0,0,1016.4,3,7,7.0,92
"2017-12-07 00:26:00",8.8,7.6,0.0,0.0,0,1016.3,4,11,6.1,92
"2017-12-07 00:27:00",8.8,7.6,0.0,0.0,0,1016.2,4,11,6.1,92
"2017-12-07 00:28:00",8.8,7.6,0.0,0.0,0,1016.3,4,7,7.0,92
"2017-12-07 00:29:00",8.8,7.6,0.0,0.0,0,1016.2,3,8,6.7,92
"2017-12-07 00:30:00",8.8,7.6,0.0,0.0,0,1016.2,3,7,7.0,92
"2017-12-07 00:31:00",8.8,7.6,0.0,0.0,0,1016.2,5,13,5.8,92
"2017-12-07 00:32:00",8.8,7.6,0.0,0.0,0,1016.2,4,8,6.7,92
"2017-12-07 00:33:00",8.8,7.6,0.0,0.0,0,1016.2,2,5,7.6,92
"2017-12-07 00:34:00",8.8,7.6,0.0,0.0,0,1016.1,4,8,6.7,92
"2017-12-07 00:35:00",8.8,7.6,0.0,0.0,0,1016.1,4,8,6.7,92
"2017-12-07 00:36:00",8.8,7.6,0.0,0.0,0,1016.0,4,10,6.3,92
"2017-12-07 00:37:00",8.7,7.5,0.0,0.0,0,1016.1,3,6,7.3,92
"2017-12-07 00:38:00",8.7,7.5,0.0,0.0,0,1016.0,4,7,6.9,92
"2017-12-07 00:39:00",8.7,7.5,0.0,0.0,0,1016.0,3,5,7.5,92
"2017-12-07 00:40:00",8.7,7.5,0.2,0.0,0,1016.0,3,12,5.8,92
"2017-12-07 00:41:00",8.7,7.5,0.2,0.0,0,1016.0,3,7,6.9,92
"2017-12-07 00:42:00",8.7,7.5,0.2,0.0,0,1015.9,3,4,7.9,92
"2017-12-07 00:43:00",8.7,7.5,0.2,0.0,0,1015.9,4,9,6.4,92
"2017-12-07 00:44:00",8.7,7.5,0.2,0.0,0,1015.9,2,4,7.9,92
"2017-12-07 00:45:00",8.7,7.6,0.2,0.0,0,1015.8,2,5,7.5,93
"2017-12-07 00:46:00",8.7,7.6,0.2,0.0,0,1015.8,3,6,7.1,93
"2017-12-07 00:47:00",8.7,7.6,0.2,0.0,0,1015.7,3,5,7.5,93
"2017-12-07 00:48:00",8.7,7.6,0.2,0.0,0,1015.8,6,11,6.0,93
"2017-12-07 00:49:00",8.7,7.6,0.2,0.0,0,1015.8,4,7,6.9,93
"2017-12-07 00:50:00",8.7,7.6,0.2,0.0,0,1015.7,3,5,7.5,93
"2017-12-07 00:51:00",8.7,7.6,0.2,0.0,0,1015.6,5,9,6.4,93
"2017-12-07 00:52:00",8.7,7.6,0.2,0.0,0,1015.6,4,7,6.9,93
"2017-12-07 00:53:00",8.7,7.6,0.2,0.0,0,1015.6,3,6,7.1,93
"2017-12-07 00:54:00",8.7,7.6,0.2,0.0,0,1015.6,4,10,6.2,93
"2017-12-07 00:55:00",8.7,7.6,0.2,0.0,0,1015.5,3,4,7.9,93
"2017-12-07 00:56:00",8.7,7.6,0.2,0.0,0,1015.5,2,3,"",93
"2017-12-07 00:57:00",8.7,7.6,0.2,0.0,0,1015.5,4,8,6.6,93
"2017-12-07 00:58:00",8.7,7.6,0.2,0.0,0,1015.5,3,7,6.9,93
"2017-12-07 00:59:00",8.7,7.6,0.2,0.0,0,1015.6,4,7,6.9,93
"2017-12-07 01:00:00",8.7,7.6,0.2,0.0,0,1015.4,6,13,5.6,93
"2017-12-07 01:01:00",8.7,7.6,0.2,0.0,0,1015.4,5,13,5.6,93
"2017-12-07 01:02:00",8.7,7.6,0.2,0.0,0,1015.4,4,5,7.5,93
"2017-12-07 01:03:00",8.7,7.6,0.2,0.0,0,1015.4,5,9,6.3,93
"2017-12-07 01:04:00",8.7,7.6,0.2,0.0,0,1015.4,5,10,6.2,93
"2017-12-07 01:05:00",8.6,7.5,0.2,0.0,0,1015.4,5,10,6.0,93
"2017-12-07 01:06:00",8.6,7.5,0.2,0.0,0,1015.4,4,6,7.0,93
"2017-12-07 01:07:00",8.6,7.5,0.2,0.0,0,1015.4,7,12,5.7,93
"2017-12-07 01:08:00",8.6,7.5,0.2,0.0,0,1015.4,4,6,7.0,93
"2017-12-07 01:09:00",8.6,7.5,0.2,0.0,0,1015.4,5,11,5.9,93
"2017-12-07 01:10:00",8.6,7.5,0.2,0.0,0,1015.3,4,8,6.5,93
"2017-12-07 01:11:00",8.6,7.5,0.2,0.0,0,1015.3,4,9,6.3,93
"2017-12-07 01:12:00",8.6,7.5,0.2,0.0,0,1015.3,5,9,6.3,93
"2017-12-07 01:13:00",8.6,7.5,0.2,0.0,0,1015.3,7,16,5.1,93
"2017-12-07 01:14:00",8.6,7.5,0.2,0.0,0,1015.2,4,9,6.3,93
"2017-12-07 01:15:00",8.6,7.5,0.2,0.0,0,1015.2,4,10,6.0,93
"2017-12-07 01:16:00",8.6,7.5,0.2,0.0,0,1015.2,5,9,6.3,93
"2017-12-07 01:17:00",8.6,7.5,0.2,0.0,0,1015.1,3,5,7.4,93
"2017-12-07 01:18:00",8.6,7.5,0.2,0.0,0,1015.1,7,13,5.5,93
"2017-12-07 01:19:00",8.6,7.5,0.2,0.0,0,1015.1,5,11,5.9,93
"2017-12-07 01:20:00",8.6,7.5,0.2,0.0,0,1015.1,4,5,7.4,93
"2017-12-07 01:21:00",8.6,7.5,0.2,0.0,0,1015.1,3,5,7.4,93
"2017-12-07 01:22:00",8.6,7.5,0.2,0.0,0,1015.1,3,6,7.0,93
"2017-12-07 01:23:00",8.6,7.7,0.2,0.0,0,1015.1,2,5,7.4,94
"2017-12-07 01:24:00",8.6,7.7,0.2,0.0,0,1015.1,7,12,5.7,94
"2017-12-07 01:25:00",8.6,7.7,0.2,0.0,0,1015.1,4,9,6.3,94
"2017-12-07 01:26:00",8.6,7.7,0.2,0.0,0,1014.9,6,14,5.4,94
"2017-12-07 01:27:00",8.6,7.7,0.2,0.0,0,1015.0,6,10,6.0,94
"2017-12-07 01:28:00",8.6,7.7,0.2,0.0,0,1014.9,7,13,5.5,94
"2017-12-07 01:29:00",8.6,7.7,0.2,0.0,0,1014.9,7,17,4.9,94
"2017-12-07 01:30:00",8.6,7.7,0.2,0.0,0,1014.9,4,6,7.0,94
"2017-12-07 01:31:00",8.6,7.7,0.2,0.0,0,1015.0,5,10,6.0,94
"2017-12-07 01:32:00",8.6,7.7,0.2,0.0,0,1014.9,6,11,5.9,94
"2017-12-07 01:33:00",8.6,7.7,0.2,0.0,0,1014.9,5,10,6.0,94
"2017-12-07 01:34:00",8.6,7.7,0.2,0.0,0,1014.9,3,7,6.7,94
"2017-12-07 01:35:00",8.6,7.7,0.2,0.0,0,1014.9,5,8,6.5,94
"2017-12-07 01:36:00",8.6,7.7,0.2,0.0,0,1014.8,4,8,6.5,94
"2017-12-07 01:37:00",8.6,7.7,0.2,0.0,0,1014.8,3,7,6.7,94
"2017-12-07 01:38:00",8.6,7.7,0.4,0.0,0,1014.8,2,7,6.7,94
"2017-12-07 01:39:00",8.6,7.7,0.4,0.0,0,1014.8,4,7,6.7,94
"2017-12-07 01:40:00",8.6,7.7,0.4,0.0,0,1014.8,9,14,5.4,94
"2017-12-07 01:41:00",8.6,7.7,0.4,0.0,0,1014.8,5,10,6.0,94
"2017-12-07 01:42:00",8.6,7.7,0.4,0.0,0,1014.8,5,12,5.7,94
"2017-12-07 01:43:00",8.6,7.7,0.4,0.0,0,1014.8,5,9,6.3,94
"2017-12-07 01:44:00",8.6,7.7,0.4,0.0,0,1014.8,5,9,6.3,94
"2017-12-07 01:45:00",8.6,7.7,0.4,0.0,0,1014.7,3,8,6.5,94
"2017-12-07 01:46:00",8.6,7.7,0.4,0.0,0,1014.7,1,3,"",94
"2017-12-07 01:47:00",8.6,7.7,0.4,0.0,0,1014.7,2,3,"",94
"2017-12-07 01:48:00",8.6,7.7,0.4,0.0,0,1014.7,5,10,6.0,94
"2017-12-07 01:49:00",8.6,7.7,0.4,0.0,0,1014.7,5,10,6.0,94
"2017-12-07 01:50:00",8.6,7.7,0.4,0.0,0,1014.7,6,10,6.0,94
"2017-12-07 01:51:00",8.6,7.7,0.4,0.0,0,1014.7,3,7,6.7,94
"2017-12-07 01:52:00",8.6,7.7,0.4,0.0,0,1014.7,4,9,6.3,94
"2017-12-07 01:53:00",8.6,7.7,0.4,0.0,0,1014.7,5,10,6.0,94
"2017-12-07 01:54:00",8.6,7.7,0.4,0.0,0,1014.7,2,5,7.4,94
"2017-12-07 01:55:00",8.6,7.7,0.4,0.0,0,1014.7,4,12,5.7,94
"2017-12-07 01:56:00",8.6,7.7,0.4,0.0,0,1014.6,5,10,6.0,94
"2017-12-07 01:57:00",8.6,7.7,0.4,0.0,0,1014.6,6,12,5.7,94
"2017-12-07 01:58:00",8.6,7.7,0.4,0.0,0,1014.6,5,14,5.4,94
"2017-12-07 01:59:00",8.6,7.7,0.4,0.0,0,1014.5,5,11,5.9,94
"2017-12-07 02:00:00",8.6,7.7,0.4,0.0,0,1014.6,4,9,6.3,94
"2017-12-07 02:01:00",8.6,7.7,0.4,0.0,0,1014.5,3,4,7.7,94
"2017-12-07 02:02:00",8.6,7.7,0.4,0.0,0,1014.5,2,4,7.7,94
"2017-12-07 02:03:00",8.6,7.7,0.4,0.0,0,1014.5,3,8,6.5,94
"2017-12-07 02:04:00",8.6,7.7,0.4,0.0,0,1014.5,4,8,6.5,94
"2017-12-07 02:05:00",8.6,7.7,0.4,0.0,0,1014.4,2,6,7.0,94
"2017-12-07 02:06:00",8.6,7.7,0.4,0.0,0,1014.5,4,9,6.3,94
"2017-12-07 02:07:00",8.6,7.7,0.4,0.0,0,1014.5,3,8,6.5,94
"2017-12-07 02:08:00",8.6,7.7,0.4,0.0,0,1014.5,3,8,6.5,94
"2017-12-07 02:09:00",8.6,7.7,0.4,0.0,0,1014.4,4,10,6.0,94
"2017-12-07 02:10:00",8.6,7.7,0.4,0.0,0,1014.5,7,13,5.5,94
"2017-12-07 02:11:00",8.6,7.7,0.4,0.0,0,1014.4,3,8,6.5,94
"2017-12-07 02:12:00",8.6,7.7,0.4,0.0,0,1014.4,5,10,6.0,94
"2017-12-07 02:13:00",8.6,7.7,0.4,0.0,0,1014.4,3,7,6.7,94
"2017-12-07 02:14:00",8.6,7.7,0.4,0.0,0,1014.3,3,7,6.7,94
"2017-12-07 02:15:00",8.6,7.7,0.4,0.0,0,1014.4,2,3,"",94
"2017-12-07 02:16:00",8.7,7.8,0.4,0.0,0,1014.4,4,10,6.0,94
"2017-12-07 02:17:00",8.6,7.7,0.4,0.0,0,1014.3,3,4,7.7,94
"2017-12-07 02:18:00",8.6,7.7,0.4,0.0,0,1014.3,4,8,6.6,94
"2017-12-07 02:19:00",8.7,7.8,0.4,0.0,0,1014.2,3,6,7.0,94
"2017-12-07 02:20:00",8.6,7.7,0.4,0.0,0,1014.2,3,7,6.7,94
"2017-12-07 02:21:00",8.7,7.8,0.4,0.0,0,1014.2,5,11,5.9,94
"2017-12-07 02:22:00",8.7,7.8,0.4,0.0,0,1014.2,3,6,7.1,94
"2017-12-07 02:23:00",8.7,7.8,0.4,0.0,0,1014.1,2,6,7.1,94
"2017-12-07 02:24:00",8.7,7.8,0.4,0.0,0,1014.1,5,8,6.6,94
"2017-12-07 02:25:00",8.7,7.9,0.4,0.0,0,1014.0,6,9,6.4,95
"2017-12-07 02:26:00",8.7,7.9,0.4,0.0,0,1014.0,5,11,6.0,95
"2017-12-07 02:27:00",8.7,7.9,0.4,0.0,0,1014.1,3,6,7.1,95
"2017-12-07 02:28:00",8.7,7.9,0.6,0.0,0,1014.1,4,10,6.2,95
"2017-12-07 02:29:00",8.7,7.8,0.6,0.0,0,1013.9,4,7,6.9,94
"2017-12-07 02:30:00",8.7,7.8,0.6,0.0,0,1014.0,2,3,"",94
"2017-12-07 02:31:00",8.7,7.9,0.6,0.0,0,1013.9,2,3,"",95
"2017-12-07 02:32:00",8.7,7.9,0.6,0.0,0,1013.9,3,6,7.1,95
"2017-12-07 02:33:00",8.7,7.9,0.6,0.0,0,1013.9,4,7,6.9,95
"2017-12-07 02:34:00",8.7,7.9,0.6,0.0,0,1013.9,4,7,6.9,95
"2017-12-07 02:35:00",8.7,7.9,0.6,0.0,0,1013.8,6,10,6.2,95
"2017-12-07 02:36:00",8.7,7.9,0.6,0.0,0,1013.7,6,11,6.0,95
"2017-12-07 02:37:00",8.7,7.9,0.6,0.0,0,1013.7,3,9,6.4,95
"2017-12-07 02:38:00",8.7,7.9,0.6,0.0,0,1013.7,4,8,6.6,95
"2017-12-07 02:39:00",8.7,7.9,0.6,0.0,0,1013.6,3,6,7.1,95
"2017-12-07 02:40:00",8.7,7.9,0.6,0.0,0,1013.6,3,5,7.5,95
"2017-12-07 02:41:00",8.7,7.9,0.6,0.0,0,1013.7,4,9,6.4,95
"2017-12-07 02:42:00",8.7,7.9,0.6,0.0,0,1013.6,5,10,6.2,95
"2017-12-07 02:43:00",8.7,7.9,0.6,0.0,0,1013.5,3,4,7.9,95
"2017-12-07 02:44:00",8.7,7.9,0.6,0.0,0,1013.6,3,5,7.5,95
"2017-12-07 02:45:00",8.7,7.9,0.6,0.0,0,1013.5,2,5,7.5,95
"2017-12-07 02:46:00",8.7,7.9,0.6,0.0,0,1013.5,5,9,6.4,95
"2017-12-07 02:47:00",8.7,7.9,0.6,0.0,0,1013.5,3,5,7.5,95
"2017-12-07 02:48:00",8.7,7.9,0.6,0.0,0,1013.5,5,12,5.8,95
"2017-12-07 02:49:00",8.7,7.9,0.6,0.0,0,1013.5,3,5,7.5,95
"2017-12-07 02:50:00",8.7,7.9,0.6,0.0,0,1013.4,2,4,7.9,95
"2017-12-07 02:51:00",8.7,7.9,0.6,0.0,0,1013.5,7,14,5.5,95
"2017-12-07 02:52:00",8.8,8.0,0.6,0.0,0,1013.4,3,5,7.5,95
"2017-12-07 02:53:00",8.8,8.0,0.6,0.0,0,1013.3,7,18,5.1,95
"2017-12-07 02:54:00",8.8,8.0,0.6,0.0,0,1013.3,6,13,5.8,95
"2017-12-07 02:55:00",8.8,8.0,0.6,0.0,0,1013.3,4,8,6.7,95
"2017-12-07 02:56:00",8.8,8.0,0.6,0.0,0,1013.3,2,3,"",95
"2017-12-07 02:57:00",8.8,8.0,0.6,0.0,0,1013.3,3,7,7.0,95
"2017-12-07 02:58:00",8.8,8.0,0.6,0.0,0,1013.2,3,5,7.6,95
"2017-12-07 02:59:00",8.8,8.0,0.6,0.0,0,1013.3,3,5,7.6,95
"2017-12-07 03:00:00",8.8,8.0,0.6,0.0,0,1013.2,7,10,6.3,95
"2017-12-07 03:01:00",8.8,8.0,0.6,0.0,0,1013.2,4,7,7.0,95
"2017-12-07 03:02:00",8.8,8.0,0.6,0.0,0,1013.2,4,7,7.0,95
"2017-12-07 03:03:00",8.8,8.0,0.6,0.0,0,1013.0,7,13,5.8,95
"2017-12-07 03:04:00",8.8,8.0,0.6,0.0,0,1013.1,5,11,6.1,95
"2017-12-07 03:05:00",8.8,8.0,0.6,0.0,0,1013.1,6,10,6.3,95
"2017-12-07 03:06:00",8.8,8.0,0.6,0.0,0,1013.0,4,7,7.0,95
"2017-12-07 03:07:00",8.8,8.0,0.6,0.0,0,1013.0,4,9,6.5,95
"2017-12-07 03:08:00",8.8,8.0,0.6,0.0,0,1013.0,6,10,6.3,95
"2017-12-07 03:09:00",8.8,8.0,0.6,0.0,0,1012.9,4,8,6.7,95
"2017-12-07 03:10:00",8.9,8.1,0.6,0.0,0,1012.9,6,10,6.3,95
"2017-12-07 03:11:00",8.9,8.1,0.6,0.0,0,1012.8,5,14,5.7,95
"2017-12-07 03:12:00",8.9,8.1,0.6,0.0,0,1012.8,3,7,7.1,95
"2017-12-07 03:13:00",8.9,8.1,0.6,0.0,0,1012.8,6,13,5.9,95
"2017-12-07 03:14:00",8.9,8.1,0.6,0.0,0,1012.8,3,4,8.1,95
"2017-12-07 03:15:00",8.9,8.1,0.6,0.0,0,1012.8,1,4,8.1,95
"2017-12-07 03:16:00",8.9,8.1,0.6,0.0,0,1012.7,5,7,7.1,95
"2017-12-07 03:17:00",8.9,8.1,0.6,0.0,0,1012.7,5,11,6.2,95
"2017-12-07 03:18:00",8.9,8.1,0.6,0.0,0,1012.7,5,10,6.4,95
"2017-12-07 03:19:00",8.9,8.1,0.6,0.0,0,1012.7,5,8,6.8,95
"2017-12-07 03:20:00",8.9,8.1,0.6,0.0,0,1012.7,4,8,6.8,95
"2017-12-07 03:21:00",8.9,8.1,0.6,0.0,0,1012.6,5,11,6.2,95
"2017-12-07 03:22:00",8.9,8.1,0.6,0.0,0,1012.7,4,10,6.4,95
"2017-12-07 03:23:00",8.9,8.1,0.6,0.0,0,1012.6,2,3,"",95
"2017-12-07 03:24:00",8.9,8.1,0.6,0.0,0,1012.6,3,4,8.1,95
"2017-12-07 03:25:00",8.9,8.1,0.6,0.0,0,1012.7,5,10,6.4,95
"2017-12-07 03:26:00",8.9,8.1,0.6,0.0,0,1012.6,8,14,5.7,95
"2017-12-07 03:27:00",8.9,8.1,0.6,0.0,0,1012.6,5,9,6.6,95
"2017-12-07 03:28:00",8.9,8.1,0.6,0.0,0,1012.6,3,6,7.4,95
"2017-12-07 03:29:00",8.9,8.1,0.6,0.0,0,1012.6,2,6,7.4,95
"2017-12-07 03:30:00",8.9,8.1,0.6,0.0,0,1012.5,2,4,8.1,95
"2017-12-07 03:31:00",8.9,8.1,0.6,0.0,0,1012.5,2,4,8.1,95
"2017-12-07 03:32:00",8.9,8.1,0.6,0.0,0,1012.5,3,8,6.8,95
"2017-12-07 03:33:00",8.9,8.1,0.6,0.0,0,1012.5,4,9,6.6,95
"2017-12-07 03:34:00",8.9,8.1,0.6,0.0,0,1012.4,3,5,7.7,95
"2017-12-07 03:35:00",8.9,8.1,0.6,0.0,0,1012.5,6,9,6.6,95
"2017-12-07 03:36:00",8.9,8.1,0.6,0.0,0,1012.5,3,5,7.7,95
"2017-12-07 03:37:00",8.9,8.1,0.6,0.0,0,1012.4,2,4,8.1,95
"2017-12-07 03:38:00",9.0,8.2,0.6,0.0,0,1012.4,6,14,5.7,95
"2017-12-07 03:39:00",9.0,8.2,0.6,0.0,0,1012.4,6,11,6.2,95
"2017-12-07 03:40:00",8.9,8.1,0.6,0.0,0,1012.5,7,10,6.5,95
"2017-12-07 03:41:00",9.0,8.2,0.6,0.0,0,1012.4,5,9,6.7,95
"2017-12-07 03:42:00",9.0,8.2,0.6,0.0,0,1012.4,3,8,7.0,95
"2017-12-07 03:43:00",9.0,8.2,0.6,0.0,0,1012.4,5,9,6.7,95
"2017-12-07 03:44:00",9.0,8.2,0.6,0.0,0,1012.3,5,8,7.0,95
"2017-12-07 03:45:00",9.0,8.2,0.6,0.0,0,1012.4,5,9,6.7,95
"2017-12-07 03:46:00",9.0,8.2,0.6,0.0,0,1012.2,4,7,7.2,95
"2017-12-07 03:47:00",9.0,8.2,0.6,0.0,0,1012.2,2,5,7.8,95
"2017-12-07 03:48:00",9.0,8.2,0.6,0.0,0,1012.3,4,7,7.2,95
"2017-12-07 03:49:00",9.0,8.2,0.6,0.0,0,1012.1,3,4,8.2,95
"2017-12-07 03:50:00",9.0,8.2,0.6,0.0,0,1012.1,2,4,8.2,95
"2017-12-07 03:51:00",9.0,8.2,0.6,0.0,0,1012.1,4,8,7.0,95
"2017-12-07 03:52:00",9.0,8.2,0.6,0.0,0,1012.0,5,10,6.5,95
"2017-12-07 03:53:00",9.1,8.3,0.6,0.0,0,1012.0,5,8,7.1,95
"2017-12-07 03:54:00",9.1,8.3,0.6,0.0,0,1012.0,5,8,7.1,95
"2017-12-07 03:55:00",9.1,8.3,0.6,0.0,0,1012.0,3,4,8.2,95
"2017-12-07 03:56:00",9.1,8.3,0.6,0.0,0,1011.9,7,17,5.6,95
"2017-12-07 03:57:00",9.1,8.3,0.6,0.0,0,1011.9,2,4,8.2,95
"2017-12-07 03:58:00",9.1,8.3,0.6,0.0,0,1011.8,3,9,6.9,95
"2017-12-07 03:59:00",9.1,8.3,0.6,0.0,0,1011.8,3,9,6.9,95
"2017-12-07 04:00:00",9.1,8.3,0.8,0.0,0,1011.7,4,10,6.7,95
"2017-12-07 04:01:00",9.1,8.3,0.8,0.0,0,1011.7,4,7,7.3,95
"2017-12-07 04:02:00",9.1,8.3,0.8,0.0,0,1011.7,5,8,7.1,95
"2017-12-07 04:03:00",9.1,8.3,0.8,0.0,0,1011.7,3,4,8.3,95
"2017-12-07 04:04:00",9.1,8.3,0.8,0.0,0,1011.7,3,6,7.6,95
"2017-12-07 04:05:00",9.1,8.3,0.8,0.0,0,1011.7,5,10,6.7,95
"2017-12-07 04:06:00",9.1,8.3,0.8,0.0,0,1011.7,3,6,7.6,95
"2017-12-07 04:07:00",9.1,8.3,0.8,0.0,0,1011.7,4,9,6.9,95
"2017-12-07 04:08:00",9.1,8.3,0.8,0.0,0,1011.6,5,9,6.9,95
"2017-12-07 04:09:00",9.1,8.3,0.8,0.0,0,1011.6,5,9,6.9,95
"2017-12-07 04:10:00",9.1,8.3,0.8,0.0,0,1011.6,7,15,5.9,95
"2017-12-07 04:11:00",9.1,8.3,0.8,0.0,0,1011.5,6,9,6.9,95
"2017-12-07 04:12:00",9.1,8.3,0.8,0.0,0,1011.5,3,6,7.6,95
"2017-12-07 04:13:00",9.1,8.3,0.8,0.0,0,1011.5,5,7,7.3,95
"2017-12-07 04:14:00",9.1,8.3,0.8,0.0,0,1011.5,5,10,6.7,95
"2017-12-07 04:15:00",9.1,8.3,0.8,0.0,0,1011.4,6,10,6.7,95
"2017-12-07 04:16:00",9.1,8.3,0.8,0.0,0,1011.4,5,7,7.3,95
"2017-12-07 04:17:00",9.1,8.3,0.8,0.0,0,1011.4,3,6,7.6,95
"2017-12-07 04:18:00",9.1,8.3,0.8,0.0,0,1011.3,5,9,6.9,95
"2017-12-07 04:19:00",9.1,8.3,0.8,0.0,0,1011.3,2,3,"",95
"2017-12-07 04:20:00",9.1,8.3,0.8,0.0,0,1011.3,3,5,7.9,95
"2017-12-07 04:21:00",9.1,8.3,0.8,0.0,0,1011.3,5,8,7.1,95
"2017-12-07 04:22:00",9.1,8.3,0.8,0.0,0,1011.2,5,11,6.5,95
"2017-12-07 04:23:00",9.1,8.3,0.8,0.0,0,1011.3,5,12,6.3,95
"2017-12-07 04:24:00",9.1,8.3,0.8,0.0,0,1011.3,5,12,6.3,95
"2017-12-07 04:25:00",9.1,8.3,0.8,0.0,0,1011.3,5,9,6.9,95
"2017-12-07 04:26:00",9.1,8.3,0.8,0.0,0,1011.1,3,5,7.9,95
"2017-12-07 04:27:00",9.1,8.3,0.8,0.0,0,1011.1,3,7,7.3,95
"2017-12-07 04:28:00",9.1,8.3,0.8,0.0,0,1011.1,5,11,6.5,95
"2017-12-07 04:29:00",9.1,8.3,0.8,0.0,0,1011.1,7,14,6.0,95
"2017-12-07 04:30:00",9.1,8.3,0.8,0.0,0,1011.0,5,13,6.1,95
"2017-12-07 04:31:00",9.1,8.3,0.8,0.0,0,1010.9,8,11,6.5,95
"2017-12-07 04:32:00",9.1,8.3,0.8,0.0,0,1011.0,6,10,6.7,95
"2017-12-07 04:33:00",9.1,8.3,0.8,0.0,0,1011.0,3,5,7.9,95
"2017-12-07 04:34:00",9.1,8.3,0.8,0.0,0,1010.9,5,12,6.3,95
"2017-12-07 04:35:00",9.2,8.4,0.8,0.0,0,1011.1,8,19,5.4,95
"2017-12-07 04:36:00",9.2,8.4,0.8,0.0,0,1010.8,4,6,7.7,95
"2017-12-07 04:37:00",9.2,8.4,0.8,0.0,0,1010.8,4,6,7.7,95
"2017-12-07 04:38:00",9.2,8.4,0.8,0.0,0,1010.8,5,8,7.2,95
"2017-12-07 04:39:00",9.2,8.4,0.8,0.0,0,1010.8,5,14,6.1,95
"2017-12-07 04:40:00",9.2,8.4,0.8,0.0,0,1010.7,3,7,7.5,95
"2017-12-07 04:41:00",9.2,8.4,0.8,0.0,0,1010.7,4,5,8.1,95
"2017-12-07 04:42:00",9.2,8.4,0.8,0.0,0,1010.8,3,6,7.7,95
"2017-12-07 04:43:00",9.2,8.4,0.8,0.0,0,1010.7,4,6,7.7,95
"2017-12-07 04:44:00",9.2,8.4,0.8,0.0,0,1010.7,5,7,7.5,95
"2017-12-07 04:45:00",9.2,8.4,0.8,0.0,0,1010.7,3,5,8.1,95
"2017-12-07 04:46:00",9.2,8.4,0.8,0.0,0,1010.6,4,7,7.5,95
"2017-12-07 04:47:00",9.2,8.4,0.8,0.0,0,1010.7,5,9,7.0,95
"2017-12-07 04:48:00",9.2,8.4,0.8,0.0,0,1010.5,6,14,6.1,95
"2017-12-07 04:49:00",9.2,8.4,0.8,0.0,0,1010.6,4,8,7.2,95
"2017-12-07 04:50:00",9.2,8.4,0.8,0.0,0,1010.6,4,9,7.0,95
"2017-12-07 04:51:00",9.2,8.4,0.8,0.0,0,1010.5,3,6,7.7,95
"2017-12-07 04:52:00",9.2,8.4,0.8,0.0,0,1010.5,4,6,7.7,95
"2017-12-07 04:53:00",9.2,8.4,0.8,0.0,0,1010.5,6,11,6.6,95
"2017-12-07 04:54:00",9.2,8.4,0.8,0.0,0,1010.5,6,10,6.8,95
"2017-12-07 04:55:00",9.2,8.6,0.8,0.0,0,1010.5,6,11,6.6,96
"2017-12-07 04:56:00",9.2,8.6,0.8,0.0,0,1010.4,5,8,7.2,96
"2017-12-07 04:57:00",9.3,8.5,1.0,0.0,0,1010.4,6,11,6.7,95
"2017-12-07 04:58:00",9.3,8.5,1.0,0.0,0,1010.4,6,12,6.6,95
"2017-12-07 04:59:00",9.3,8.5,1.0,0.0,0,1010.3,7,14,6.3,95
"2017-12-07 05:00:00",9.3,8.5,1.0,0.0,0,1010.3,5,7,7.6,95
"2017-12-07 05:01:00",9.3,8.5,1.0,0.0,0,1010.3,4,11,6.7,95
"2017-12-07 05:02:00",9.3,8.5,1.0,0.0,0,1010.2,4,6,7.9,95
"2017-12-07 05:03:00",9.3,8.5,1.0,0.0,0,1010.2,4,9,7.1,95
"2017-12-07 05:04:00",9.3,8.5,1.0,0.0,0,1010.1,3,6,7.9,95
"2017-12-07 05:05:00",9.3,8.5,1.0,0.0,0,1010.1,5,11,6.7,95
"2017-12-07 05:06:00",9.3,8.5,1.0,0.0,0,1010.2,4,8,7.3,95
"2017-12-07 05:07:00",9.3,8.5,1.0,0.0,0,1010.1,5,11,6.7,95
"2017-12-07 05:08:00",9.3,8.5,1.0,0.0,0,1010.1,2,3,"",95
"2017-12-07 05:09:00",9.3,8.5,1.0,0.0,0,1010.1,3,5,8.2,95
"2017-12-07 05:10:00",9.3,8.5,1.0,0.0,0,1010.0,5,9,7.1,95
"2017-12-07 05:11:00",9.3,8.5,1.0,0.0,0,1010.0,3,6,7.9,95
"2017-12-07 05:12:00",9.4,8.6,1.0,0.0,0,1010.0,3,6,7.9,95
"2017-12-07 05:13:00",9.3,8.5,1.0,0.0,0,1009.9,4,7,7.6,95
"2017-12-07 05:14:00",9.4,8.6,1.0,0.0,0,1009.9,3,7,7.7,95
"2017-12-07 05:15:00",9.4,8.6,1.0,0.0,0,1009.8,4,9,7.2,95
"2017-12-07 05:16:00",9.4,8.6,1.0,0.0,0,1009.8,4,7,7.7,95
"2017-12-07 05:17:00",9.4,8.6,1.0,0.0,0,1009.9,5,10,7.0,95
"2017-12-07 05:18:00",9.4,8.6,1.0,0.0,0,1009.8,5,10,7.0,95
"2017-12-07 05:19:00",9.4,8.6,1.0,0.0,0,1009.8,9,16,6.1,95
"2017-12-07 05:20:00",9.4,8.6,1.0,0.0,0,1009.8,4,12,6.7,95
"2017-12-07 05:21:00",9.4,8.6,1.0,0.0,0,1009.7,3,9,7.2,95
"2017-12-07 05:22:00",9.4,8.6,1.0,0.0,0,1009.6,6,10,7.0,95
"2017-12-07 05:23:00",9.4,8.6,1.0,0.0,0,1009.6,4,6,8.0,95
"2017-12-07 05:24:00",9.4,8.6,1.0,0.0,0,1009.6,2,3,"",95
"2017-12-07 05:25:00",9.4,8.6,1.0,0.0,0,1009.6,2,4,8.7,95
"2017-12-07 05:26:00",9.4,8.8,1.0,0.0,0,1009.6,7,16,6.1,96
"2017-12-07 05:27:00",9.4,8.8,1.0,0.0,0,1009.6,4,9,7.2,96
"2017-12-07 05:28:00",9.4,8.8,1.0,0.0,0,1009.6,6,11,6.9,96
"2017-12-07 05:29:00",9.4,8.8,1.0,0.0,0,1009.5,4,9,7.2,96
"2017-12-07 05:30:00",9.5,8.9,1.0,0.0,0,1009.4,5,13,6.5,96
"2017-12-07 05:31:00",9.4,8.8,1.0,0.0,0,1009.4,4,7,7.7,96
"2017-12-07 05:32:00",9.5,8.9,1.0,0.0,0,1009.6,4,8,7.6,96
"2017-12-07 05:33:00",9.4,8.8,1.0,0.0,0,1009.5,3,6,8.0,96
"2017-12-07 05:34:00",9.5,8.9,1.0,0.0,0,1009.5,3,7,7.8,96
"2017-12-07 05:35:00",9.4,8.8,1.2,0.0,0,1009.6,4,11,6.9,96
"2017-12-07 05:36:00",9.5,8.9,1.2,0.0,0,1009.5,8,13,6.7,96
"2017-12-07 05:37:00",9.5,8.9,1.2,0.0,0,1009.5,7,12,6.8,96
"2017-12-07 05:38:00",9.5,8.9,1.2,0.0,0,1009.4,6,12,6.8,96
"2017-12-07 05:39:00",9.5,8.9,1.2,0.0,0,1009.5,5,9,7.4,96
"2017-12-07 05:40:00",9.5,8.9,1.2,0.0,0,1009.4,3,4,8.8,96
"2017-12-07 05:41:00",9.6,9.0,1.2,0.0,0,1009.5,6,13,6.8,96
"2017-12-07 05:42:00",9.6,9.0,1.2,0.0,0,1009.4,4,7,7.8,96
"2017-12-07 05:43:00",9.6,9.0,1.2,0.0,0,1009.3,5,10,7.3,96
"2017-12-07 05:44:00",9.6,9.0,1.2,0.0,0,1009.4,3,7,7.9,96
"2017-12-07 05:45:00",9.6,9.0,1.2,0.0,0,1009.3,3,5,8.5,96
"2017-12-07 05:46:00",9.6,9.0,1.2,0.0,0,1009.4,6,15,6.5,96
"2017-12-07 05:47:00",9.6,9.0,1.2,0.0,0,1009.3,6,9,7.5,96
"2017-12-07 05:48:00",9.6,9.0,1.2,0.0,0,1009.2,4,6,8.2,96
"2017-12-07 05:49:00",9.6,9.0,1.2,0.0,0,1009.3,3,6,8.2,96
"2017-12-07 05:50:00",9.6,9.0,1.2,0.0,0,1009.2,3,6,8.2,96
"2017-12-07 05:51:00",9.6,9.0,1.2,0.0,0,1009.2,6,10,7.3,96
"2017-12-07 05:52:00",9.6,9.0,1.2,0.0,0,1009.1,7,11,7.1,96
"2017-12-07 05:53:00",9.6,9.0,1.2,0.0,0,1009.2,5,9,7.5,96
"2017-12-07 05:54:00",9.6,9.0,1.2,0.0,0,1009.2,3,5,8.5,96
"2017-12-07 05:55:00",9.6,9.0,1.2,0.0,0,1009.1,4,7,7.9,96
"2017-12-07 05:56:00",9.6,9.0,1.2,0.0,0,1009.1,3,10,7.3,96
"2017-12-07 05:57:00",9.6,9.0,1.2,0.0,0,1009.2,6,12,6.9,96
"2017-12-07 05:58:00",9.6,9.0,1.2,0.0,0,1009.2,4,8,7.7,96
"2017-12-07 05:59:00",9.6,9.0,1.2,0.0,0,1009.1,7,13,6.8,96
"2017-12-07 06:00:00",9.6,9.0,1.2,0.0,0,1009.1,3,6,8.2,96
"2017-12-07 06:01:00",9.6,9.0,1.2,0.0,0,1009.2,2,6,8.2,96
"2017-12-07 06:02:00",9.6,9.0,1.4,0.0,0,1009.2,3,4,8.9,96
"2017-12-07 06:03:00",9.6,9.0,1.4,0.0,0,1009.1,4,5,8.5,96
"2017-12-07 06:04:00",9.6,9.0,1.4,0.0,0,1009.1,3,7,7.9,96
"2017-12-07 06:05:00",9.6,9.0,1.4,0.0,0,1009.0,4,8,7.7,96
"2017-12-07 06:06:00",9.6,9.0,1.4,0.0,0,1009.0,4,8,7.7,96
"2017-12-07 06:07:00",9.6,9.0,1.4,0.0,0,1009.0,7,14,6.6,96
"2017-12-07 06:08:00",9.6,9.0,1.4,0.0,0,1009.0,3,8,7.7,96
"2017-12-07 06:09:00",9.6,9.0,1.4,0.0,0,1009.0,7,14,6.6,96
"2017-12-07 06:10:00",9.7,9.1,1.4,0.0,0,1008.9,5,8,7.8,96
"2017-12-07 06:11:00",9.7,9.1,1.4,0.0,0,1008.9,4,6,8.3,96
"2017-12-07 06:12:00",9.7,9.1,1.4,0.0,0,1008.9,4,5,8.6,96
"2017-12-07 06:13:00",9.7,9.1,1.4,0.0,0,1008.8,3,5,8.6,96
"2017-12-07 06:14:00",9.7,9.1,1.4,0.0,0,1008.8,4,12,7.1,96
"2017-12-07 06:15:00",9.7,9.1,1.4,0.0,0,1008.8,7,11,7.2,96
"2017-12-07 06:16:00",9.7,9.1,1.4,0.0,0,1008.7,3,4,9.0,96
"2017-12-07 06:17:00",9.7,9.1,1.4,0.0,0,1008.8,5,14,6.8,96
"2017-12-07 06:18:00",9.7,9.1,1.4,0.0,0,1008.9,6,11,7.2,96
"2017-12-07 06:19:00",9.7,9.1,1.4,0.0,0,1008.8,3,7,8.1,96
"2017-12-07 06:20:00",9.7,9.1,1.4,0.0,0,1008.7,6,9,7.6,96
"2017-12-07 06:21:00",9.7,9.1,1.4,0.0,0,1008.8,2,3,"",96
"2017-12-07 06:22:00",9.7,9.1,1.4,0.0,0,1008.8,4,9,7.6,96
"2017-12-07 06:23:00",9.7,9.1,1.4,0.0,0,1008.7,8,15,6.6,96
"2017-12-07 06:24:00",9.7,9.1,1.4,0.0,0,1008.8,7,12,7.1,96
"2017-12-07 06:25:00",9.7,9.1,1.4,0.0,0,1008.8,3,7,8.1,96
"2017-12-07 06:26:00",9.7,9.1,1.4,0.0,0,1008.6,6,14,6.8,96
"2017-12-07 06:27:00",9.7,9.1,1.4,0.0,0,1008.7,4,8,7.8,96
"2017-12-07 06:28:00",9.7,9.1,1.4,0.0,0,1008.6,5,13,6.9,96
"2017-12-07 06:29:00",9.7,9.1,1.4,0.0,0,1008.6,7,16,6.6,96
"2017-12-07 06:30:00",9.8,9.2,1.4,0.0,0,1008.5,4,7,8.2,96
"2017-12-07 06:31:00",9.8,9.2,1.4,0.0,0,1008.5,3,5,8.8,96
"2017-12-07 06:32:00",9.8,9.2,1.4,0.0,0,1008.4,5,13,7.0,96
"2017-12-07 06:33:00",9.8,9.2,1.4,0.0,0,1008.5,4,9,7.7,96
"2017-12-07 06:34:00",9.8,9.2,1.4,0.0,0,1008.4,5,9,7.7,96
"2017-12-07 06:35:00",9.8,9.2,1.4,0.0,0,1008.3,2,5,8.8,96
"2017-12-07 06:36:00",9.8,9.2,1.4,0.0,0,1008.3,3,6,8.5,96
"2017-12-07 06:37:00",9.8,9.2,1.4,0.0,0,1008.3,3,6,8.5,96
"2017-12-07 06:38:00",9.8,9.2,1.4,0.0,0,1008.3,3,5,8.8,96
"2017-12-07 06:39:00",9.8,9.2,1.4,0.0,0,1008.3,3,8,7.9,96
"2017-12-07 06:40:00",9.8,9.2,1.4,0.0,0,1008.3,4,8,7.9,96
"2017-12-07 06:41:00",9.8,9.2,1.4,0.0,0,1008.2,7,10,7.5,96
"2017-12-07 06:42:00",9.8,9.2,1.4,0.0,0,1008.3,6,10,7.5,96
"2017-12-07 06:43:00",9.8,9.2,1.4,0.0,0,1008.2,5,11,7.4,96
"2017-12-07 06:44:00",9.8,9.2,1.4,0.0,0,1008.2,5,10,7.5,96
"2017-12-07 06:45:00",9.8,9.2,1.4,0.0,0,1008.2,3,4,9.1,96
"2017-12-07 06:46:00",9.8,9.2,1.4,0.0,0,1008.1,5,11,7.4,96
"2017-12-07 06:47:00",9.8,9.2,1.4,0.0,0,1008.1,5,10,7.5,96
"2017-12-07 06:48:00",9.8,9.2,1.4,0.0,0,1008.2,3,5,8.8,96
"2017-12-07 06:49:00",9.8,9.2,1.4,0.0,0,1008.2,2,4,9.1,96